Weather History for Mobridge, SD

Change the Weather History Date:

Friday, October 31, 2014

  Actual Average Record
Temperature  
Mean Temperature 31 °F 41 °F  
Max Temperature 43 °F 52 °F 77 °F (1999)
Min Temperature 18 °F 29 °F 5 °F (1991)
Degree Days  
Heating Degree Days 34 24  
Month to date heating degree days 436 554  
Since 1 July heating degree days 638 774  
Cooling Degree Days 0 0  
Month to date cooling degree days 5 3  
Year to date cooling degree days 471 644  
Moisture  
Dew Point 17 °F    
Average Humidity 61    
Maximum Humidity 92    
Minimum Humidity 29    
Precipitation  
Precipitation 0.00 in 0.03 in 0.86 in (1929)
Month to date precipitation 0.56 1.50  
Year to date precipitation 20.59 16.95  
Snow  
Snow 0.00 in - - ()
Month to date snowfall 0.0  
Since 1 July snowfall 0.0  
Snow Depth 0.00 in    
Sea Level Pressure  
Sea Level Pressure 30.45 in    
Wind  
Wind Speed 18 mph (SE)    
Max Wind Speed 36 mph    
Max Gust Speed 45 mph    
Visibility 10 miles    
Events      
T = Trace of Precipitation, MM = Missing Value Source: NWS Daily Summary

Daily Weather History Graph

Daily Weather History Graph

Search for Another Location

Airport:

Trip Planner

Search our weather history database for the weather conditions in past years. The results will help you decide how hot, cold, wet, or windy it might be!

Date:

Astronomy

Oct. 31, 2014 Rise Set
Actual Time 8:19 AM CDT 6:29 PM CDT
Civil Twilight 7:48 AM CDT 7:00 PM CDT
Nautical Twilight 7:14 AM CDT 7:35 PM CDT
Astronomical Twilight 6:39 AM CDT 8:10 PM CDT
Moon 3:04 PM CDT (10/31) 12:50 AM CDT (10/31)
Length of Visible Light 11h 11m
Length of Day
10h 10m
First Quarter, 57% of the Moon is Illuminated
Oct 31
First Quarter
Nov 6
Full
Nov 14
Last Quarter
Nov 22
New
Nov 29
First Quarter

Hourly Weather History & Observations

Time (CDT) Temp. Windchill Dew Point Humidity Pressure Visibility Wind Dir Wind Speed Gust Speed Precip Events Conditions
12:52 AM 21.9 °F 13.4 °F 18.0 °F 85% 30.61 in 10.0 mi ENE 6.9 mph - N/A   Clear
1:52 AM 21.0 °F 12.4 °F 17.1 °F 85% 30.62 in 10.0 mi ENE 6.9 mph - N/A   Clear
2:52 AM 25.0 °F 16.3 °F 19.9 °F 81% 30.61 in 10.0 mi ENE 8.1 mph - N/A   Clear
3:52 AM 19.9 °F 14.9 °F 16.0 °F 85% 30.63 in 10.0 mi South 3.5 mph - N/A   Clear
4:52 AM 21.9 °F 12.5 °F 19.0 °F 89% 30.61 in 10.0 mi East 8.1 mph - N/A   Clear
5:52 AM 21.0 °F 10.6 °F 17.1 °F 85% 30.60 in 10.0 mi East 9.2 mph - N/A   Clear
6:52 AM 19.9 °F 8.6 °F 14.0 °F 78% 30.60 in 10.0 mi ESE 10.4 mph - N/A   Clear
7:52 AM 19.0 °F - 14.0 °F 81% 30.60 in 10.0 mi Calm Calm - N/A   Clear
8:52 AM 23.0 °F 12.4 °F 18.0 °F 81% 30.59 in 10.0 mi SE 10.4 mph - N/A   Clear
9:52 AM 27.0 °F 16.7 °F 21.0 °F 78% 30.58 in 10.0 mi SE 11.5 mph - N/A   Clear
10:52 AM 32.0 °F 21.6 °F 21.9 °F 66% 30.56 in 10.0 mi SSE 15.0 mph - N/A   Clear
11:52 AM 34.0 °F 23.0 °F 19.9 °F 56% 30.54 in 10.0 mi SSE 18.4 mph - N/A   Clear
12:52 PM 37.0 °F 26.7 °F 18.0 °F 46% 30.51 in 10.0 mi SSE 19.6 mph 27.6 mph N/A   Clear
1:52 PM 39.0 °F 29.0 °F 15.1 °F 38% 30.45 in 10.0 mi SSE 20.7 mph - N/A   Clear
2:52 PM 39.9 °F 29.5 °F 15.1 °F 36% 30.38 in 10.0 mi SSE 24.2 mph 32.2 mph N/A   Clear
3:52 PM 43.0 °F 33.1 °F 12.0 °F 28% 30.35 in 10.0 mi SSE 26.5 mph 33.4 mph N/A   Clear
4:52 PM 42.1 °F 31.7 °F 12.0 °F 29% 30.31 in 10.0 mi SSE 27.6 mph 34.5 mph N/A   Clear
5:52 PM 41.0 °F 30.5 °F 12.0 °F 31% 30.29 in 10.0 mi SE 26.5 mph - N/A   Clear
6:52 PM 39.0 °F 28.3 °F 12.0 °F 33% 30.27 in 10.0 mi SE 24.2 mph - N/A   Clear
7:52 PM 37.9 °F 27.1 °F 16.0 °F 41% 30.25 in 10.0 mi SE 23.0 mph 36.8 mph N/A   Clear
8:52 PM 36.0 °F 25.0 °F 17.1 °F 46% 30.24 in 10.0 mi SSE 20.7 mph 33.4 mph N/A   Clear
9:52 PM 37.9 °F 26.1 °F 18.0 °F 45% 30.20 in 10.0 mi SSE 27.6 mph 36.8 mph N/A   Clear
10:52 PM 39.0 °F 27.4 °F 18.0 °F 43% 30.16 in 10.0 mi SSE 28.8 mph 40.3 mph N/A   Clear
11:52 PM 39.0 °F 27.0 °F 18.0 °F 43% 30.13 in 10.0 mi SSE 31.1 mph 39.1 mph N/A   Clear